Location: Azat
(46.0765°N, 1.7600°E)
Time: 20:39:06
(UTC+00:00)

STPSAT 2 (USA 217) - Pass Details

Date: 09 April 2020
Orbit: 622 x 646 km, 72.0° (Epoch: 16 May)

Event Time Altitude Azimuth Distance (km) Brightness Sun altitude
Rises 20:25:28 0° 202° (SSW) 2,889 7.9 -18.7°
Reaches altitude 10° 20:27:42 10° 203° (SSW) 1,987 7.0 -19.0°
Maximum altitude 20:32:10 88° 114° (ESE) 630 4.5 -19.7°
Drops below altitude 10° 20:36:41 10° 25° (NNE) 2,008 7.3 -20.3°
Sets 20:38:57 0° 25° (NNE) 2,922 8.2 -20.6°
